Location: Newark
(60.5925°N, 45.5911°E)
Time: 16:41:03
(UTC+00:00)

ISS - Pass Details

Date: 23 September 2019
Orbit: 411 x 421 km, 51.6° (Epoch: 14 October)

Event Time Altitude Azimuth Distance (km) Brightness Sun altitude
Rises 17:04:42 0° 227° (SW) 2,341 0.3 -15.9°
Reaches altitude 10° 17:07:23 10° 203° (SSW) 1,481 -1.1 -16.2°
Enters shadow 17:08:12 13° 190° (S) 1,309 -1.5 -16.3°
